Weather Roundup
Issued by NWS

Home | Current Version | Previous Version | Graphics & Text | Print | Product List | Glossary Off
Versions: 1 2 3 4 5 6 7 8 9 10 11 12 13 14 15 16 17 18 19 20 21 22 23 24 25 26 27 28 29 30 31 32 33 34 35 36 37 38 39 40 41 42 43 44 45 46 47 48 49 50

000
NZUS93 KARX 292010
HRRWXR

CURRENT HOURLY OBSERVATIONS ACROSS
MUCH OF THE UPPER MISSISSIPPI VALLEY
NATIONAL WEATHER SERVICE LA CROSSE WI
300 PM CDT FRI AUG 29 2014


...SOUTHEAST MINNESOTA...


CITY           SKY/WX    TMP DP  RH WIND       PRES   REMARKS
ROCHESTER      PTSUNNY   80  70  71 S12       29.78F
ROCHESTER/MAYO FAIR      81  67  63 SW7       29.77F
WINONA         MOSUNNY   86  70  58 SW9G18    29.76F HX  90
AUSTIN         CLOUDY    81  70  69 SW13G18   29.77F
ALBERT LEA     TSTM      79  73  83 S6        29.78F
DODGE CENTER   CLOUDY    82  70  65 S9G18     29.77F
PRESTON        MOSUNNY   82  74  78 S5        29.79F THUNDER
OWATONNA       CLOUDY    81  68  65 SW8       29.77F
FARIBAULT      CLOUDY    82  66  57 SW8       29.76F
$$

...ELSEWHERE IN MINNESOTA...


CITY           SKY/WX    TMP DP  RH WIND       PRES   REMARKS
MINNEAPOLIS    CLOUDY    79  68  69 S7        29.74F
INTNL FALLS    CLOUDY    68  61  78 SE6       29.76F
DULUTH         RAIN      63  61  93 S3        29.78S FOG
RED WING       PTSUNNY   84  70  61 S5        29.73F THUNDER
REDWOOD FALLS  LGT RAIN  70  67  90 S9        29.75S
MANKATO        CLOUDY    77  66  69 S8        29.75F
WORTHINGTON    CLOUDY    70  70 100 W6        29.81S
FAIRMONT       CLOUDY    72  66  83 SW9       29.79S
$$

...SOUTHWEST WISCONSIN...


CITY           SKY/WX    TMP DP  RH WIND       PRES   REMARKS
LA CROSSE      MOSUNNY   85  71  63 S12       29.77F HX  90
PRAIRIE DU CHI SUNNY     87  67  51 S10       29.79F HX  90
BOSCOBEL       SUNNY     89  70  53 S8        29.80F HX  94
LONE ROCK      SUNNY     90  72  55 S14       29.82F HX  97
PLATTEVILLE    SUNNY     84  73  67 S12G17    29.85F HX  90
FORT MC COY    SUNNY     84  68  58 SW6       29.81F
CAMP DOUGLAS   MOSUNNY   84  73  70 S9        29.82F HX  91
VIROQUA        FAIR      84  70  63 S9        29.83F
WIS DELLS      MOSUNNY   87  69  53 S14       29.84F HX  91
$$

...ELSEWHERE IN WISCONSIN...


CITY           SKY/WX    TMP DP  RH WIND       PRES   REMARKS
MILWAUKEE      PTSUNNY   80  72  76 SE10      29.89F
MADISON        PTSUNNY   84  69  60 S15       29.85F
GREEN BAY      MOSUNNY   83  72  69 SW13G23   29.84F
EAU CLAIRE     MOSUNNY   82  71  69 S10       29.76F
BLACK RVR FLS  FAIR      83  69  62 S7        29.80F
MEDFORD        PTSUNNY   74  68  81 SE7       29.83F
WAUSAU         CLOUDY    75  68  78 S7        29.83F
WIS RAPIDS     MOSUNNY   82  70  66 SW8       29.84F
MARSHFIELD     PTSUNNY   80  70  71 S13       29.83F
RICE LAKE      TSTM      70  67  92 NW8G18    29.80F VSB 3/4
$$

...NORTHEAST IOWA...


CITY           SKY/WX    TMP DP  RH WIND       PRES   REMARKS
WATERLOO       MOSUNNY   87  69  54 S14       29.77F HX  91
DUBUQUE        SUNNY     84  71  65 S14       29.84F
DECORAH        MOSUNNY   84  70  61 S14G20    29.79F
MASON CITY     CLOUDY    80  70  71 SW12      29.80F
CHARLES CITY   PTSUNNY   84  70  61 S18       29.78F
OELWEIN        MOSUNNY   86  72  62 S14G22    29.80F HX  92
$$

...ELSEWHERE IN IOWA...


CITY           SKY/WX    TMP DP  RH WIND       PRES   REMARKS
DES MOINES     CLOUDY    82  69  64 S8        29.78F
IOWA CITY      SUNNY     86  72  62 S14       29.82F HX  92
FORT DODGE     CLOUDY    79  70  73 SW7       29.80F
MARSHALLTOWN   PTSUNNY   84  71  65 S14       29.78F
CEDAR RAPIDS   MOSUNNY   85  71  63 S12       29.81F HX  90
$$

...NORTHERN ILLINOIS...


CITY           SKY/WX    TMP DP  RH WIND       PRES   REMARKS
CHICAGO-OHARE  CLOUDY    85  70  60 SE13      29.90F
DUPAGE         PTSUNNY   86  73  65 S13G18    29.90F HX  93
CHICAGO-MIDWAY PTSUNNY   86  73  65 S10       29.91F HX  93
MOLINE         SUNNY     87  72  60 S12       29.84F HX  93
ROCKFORD       MOSUNNY   84  72  67 S17       29.89F
STERLING       MOSUNNY   86  73  66 S8        29.86F HX  93
PEORIA         PTSUNNY   88  72  58 S13       29.87F HX  94
$$

NOTE: "FAIR" INDICATES FEW OR NO CLOUDS BELOW 12,000 FEET WITH NO
SIGNIFICANT WEATHER AND/OR OBSTRUCTIONS TO VISIBILITY. WIND
SPEEDS ARE IN MILES-PER-HOUR.



USA.gov is the U.S. government's official web portal to all federal, state and local government web resources and services.